COSMOS 2545 (760)

Last updated on Wed Sep 17 2025 00:03:19 GMT+0000 (Coordinated Universal Time)

1 45358U 20018A 25258.70757410 -.00000055 00000+0 00000+0 0 9998 2 45358 64.5179 322.0585 0011755 237.9464 122.0040 2.13102446 42815
UTC large
Height (km)
Speed (km/s)
/
Latitude / Longitude
Inclination (degrees)
Orbital Period (minutes)
Azimuth
Elevation
Range (km)
Doppler Factor

Next 0 passes for location: London (51.5072 / 0.1276)

Sorry there are no passes over London.